EW4659 Weather Reports


time (UTC)temp
C
wind
direction
speed
KPH
gust
KPH
rain 1hr
cm
rain 24hr
cm
rain mn
cm
humidity
%
barometer
mb
20260508154518 15 263 4.8 14.5 0.00 0.00 0.00 54 1013.9
20260508154008 15 171 1.6 12.9 0.00 0.00 0.00 57 1014.0
20260508153512 15 208 1.6 12.9 0.00 0.00 0.00 53 1014.1
20260508153033 15 186 1.6 12.9 0.00 0.00 0.00 55 1014.0
20260508152508 14 170 1.6 12.9 0.00 0.00 0.00 54 1014.2
20260508152016 14 349 1.6 12.9 0.00 0.00 0.00 54 1014.2
20260508151538 13 184 0.0 14.5 0.00 0.00 0.00 57 1014.3
20260508151012 13 194 4.8 14.5 0.00 0.00 0.00 57 1014.4
20260508150517 13 134 0.0 9.7 0.00 0.00 0.00 58 1014.4
20260508150015 13 253 3.2 9.7 0.00 0.00 0.00 59 1014.5
20260508145506 12 207 1.6 9.7 0.00 0.00 0.00 59 1014.5
20260508145011 12 205 3.2 11.3 0.00 0.00 0.00 60 1014.5
20260508144515 12 188 1.6 11.3 0.00 0.00 0.00 59 1014.5
20260508144007 12 245 4.8 11.3 0.00 0.00 0.00 59 1014.4
20260508143506 12 331 1.6 11.3 0.00 0.00 0.00 60 1014.5
20260508143021 12 257 0.0 9.7 0.00 0.00 0.00 60 1014.4
20260508142512 12 258 3.2 12.9 0.00 0.00 0.00 59 1014.4
20260508142011 12 202 1.6 12.9 0.00 0.00 0.00 59 1014.4
20260508141525 12 273 0.0 11.3 0.00 0.00 0.00 59 1014.4
20260508141015 12 228 3.2 14.5 0.00 0.00 0.00 59 1014.4
20260508140514 12 192 3.2 14.5 0.00 0.00 0.00 59 1014.4
20260508140026 12 205 3.2 12.9 0.00 0.00 0.00 59 1014.4
20260508135514 12 195 4.8 12.9 0.00 0.00 0.00 59 1014.3
20260508135013 12 145 3.2 17.7 0.00 0.00 0.00 59 1014.3
20260508134527 12 182 1.6 17.7 0.00 0.00 0.00 59 1014.3
20260508134007 12 245 1.6 14.5 0.00 0.00 0.00 60 1014.3
20260508133507 12 257 1.6 14.5 0.00 0.00 0.00 60 1014.3
20260508133021 12 238 3.2 16.1 0.00 0.00 0.00 59 1014.3
20260508132506 12 241 3.2 16.1 0.00 0.00 0.00 58 1014.3
20260508132015 12 222 3.2 14.5 0.00 0.00 0.00 60 1014.2
20260508131525 12 251 8.0 19.3 0.00 0.00 0.00 58 1014.1
20260508131007 12 210 1.6 19.3 0.00 0.00 0.00 60 1014.2
20260508130510 11 229 3.2 11.3 0.00 0.00 0.00 62 1014.2
20260508130029 11 229 1.6 12.9 0.00 0.00 0.00 64 1014.1
20260508125507 11 180 3.2 12.9 0.00 0.00 0.00 63 1014.2
20260508125015 10 239 3.2 14.5 0.00 0.00 0.00 64 1014.2
20260508124532 10 223 3.2 14.5 0.00 0.00 0.00 64 1014.2
20260508124010 10 250 4.8 14.5 0.00 0.00 0.00 64 1014.2
20260508123512 10 201 1.6 12.9 0.00 0.00 0.00 64 1014.2
20260508123028 10 181 1.6 11.3 0.00 0.00 0.00 65 1014.1
20260508122507 10 219 4.8 11.3 0.00 0.00 0.00 65 1013.9
20260508122011 10 243 1.6 11.3 0.00 0.00 0.00 66 1014.1
20260508121527 10 167 1.6 14.5 0.00 0.00 0.00 66 1014.1
20260508121008 9 177 4.8 16.1 0.00 0.00 0.00 66 1014.0
20260508120507 9 195 4.8 16.1 0.00 0.00 0.00 65 1014.1
20260508120025 9 233 4.8 11.3 0.00 0.00 0.00 65 1014.1
20260508115509 9 269 1.6 11.3 0.00 0.00 0.00 68 1014.1
20260508115010 8 247 1.6 11.3 0.00 0.00 0.00 68 1014.0
20260508114528 8 196 1.6 11.3 0.00 0.00 0.00 69 1013.9
20260508114011 8 196 3.2 12.9 0.00 0.00 0.00 69 1014.0
20260508113515 8 259 3.2 12.9 0.00 0.00 0.00 71 1014.0
20260508113035 8 188 1.6 11.3 0.00 0.00 0.00 71 1013.9
20260508112509 7 215 1.6 11.3 0.00 0.00 0.00 72 1013.9
20260508112011 7 227 4.8 11.3 0.00 0.00 0.00 72 1013.9
20260508111530 7 174 1.6 8.0 0.00 0.00 0.00 73 1013.9
20260508111010 7 227 0.0 6.4 0.00 0.00 0.00 73 1013.8
20260508110513 6 185 0.0 6.4 0.00 0.00 0.00 74 1013.9
20260508110025 6 278 1.6 8.0 0.00 0.00 0.00 74 1013.9
20260508105508 6 223 0.0 9.7 0.00 0.00 0.00 75 1013.8
20260508105015 6 223 0.0 11.3 0.00 0.00 0.00 76 1013.7
20260508104525 6 236 3.2 11.3 0.00 0.00 0.00 77 1013.7
20260508104008 5 221 0.0 11.3 0.00 0.00 0.00 78 1013.6
20260508103511 5 182 1.6 11.3 0.00 0.00 0.00 79 1013.7
20260508103028 5 198 0.0 4.8 0.00 0.00 0.00 80 1013.6
20260508102508 5 214 0.0 4.8 0.00 0.00 0.00 80 1013.7
20260508102015 5 234 0.0 4.8 0.00 0.00 0.00 80 1013.7
20260508101528 5 126 0.0 1.6 0.00 0.00 0.00 80 1013.5
20260508101006 5 126 0.0 0.0 0.00 0.00 0.00 80 1013.4
20260508100511 5 126 0.0 1.6 0.00 0.00 0.00 80 1013.4
20260508100020 5 126 0.0 1.6 0.00 0.00 0.00 80 1013.3
20260508095507 5 126 0.0 1.6 0.00 0.00 0.00 80 1013.3
20260508095013 5 126 0.0 1.6 0.00 0.00 0.00 80 1013.4
20260508094525 5 126 0.0 1.6 0.00 0.00 0.00 80 1013.4
20260508094009 5 126 0.0 1.6 0.00 0.00 0.00 80 1013.4
20260508093516 5 126 0.0 1.6 0.00 0.00 0.00 80 1013.4
20260508093008 5 126 0.0 1.6 0.00 0.00 0.00 80 1013.5
20260508092507 5 126 0.0 0.0 0.00 0.00 0.00 80 1013.5
20260508092006 5 126 0.0 0.0 0.00 0.00 0.00 80 1013.5
20260508091528 5 126 0.0 0.0 0.00 0.00 0.00 80 1013.5
20260508091005 5 126 0.0 0.0 0.00 0.00 0.00 80 1013.6
20260508090507 5 126 0.0 0.0 0.00 0.00 0.00 80 1013.7
20260508090018 5 126 0.0 0.0 0.00 0.00 0.00 80 1013.7
20260508085509 5 126 0.0 1.6 0.00 0.00 0.00 79 1013.7
20260508085012 6 126 0.0 1.6 0.00 0.00 0.00 79 1013.7
20260508084522 6 126 0.0 0.0 0.00 0.00 0.00 78 1013.6
20260508084012 6 126 0.0 0.0 0.00 0.00 0.00 78 1013.7
20260508083510 6 126 0.0 0.0 0.00 0.00 0.00 78 1013.6
20260508083034 6 126 0.0 0.0 0.00 0.00 0.00 77 1013.7
20260508082510 6 126 0.0 1.6 0.00 0.00 0.00 77 1013.7
20260508082009 6 126 0.0 1.6 0.00 0.00 0.00 76 1013.7
20260508081530 6 126 0.0 1.6 0.00 0.00 0.00 76 1013.7
20260508081005 6 126 0.0 1.6 0.00 0.00 0.00 76 1013.7
20260508080509 6 126 0.0 0.0 0.00 0.00 0.00 75 1013.7
20260508080014 7 126 0.0 0.0 0.00 0.00 0.00 74 1013.7
20260508075508 7 126 0.0 0.0 0.00 0.00 0.00 73 1013.7
20260508075010 7 126 0.0 0.0 0.00 0.00 0.00 73 1013.7
20260508074519 7 126 0.0 0.0 0.00 0.00 0.00 72 1013.7
20260508074006 7 126 0.0 1.6 0.00 0.00 0.00 71 1013.7
20260508073510 7 126 0.0 3.2 0.00 0.00 0.00 71 1013.8
20260508073025 8 129 0.0 3.2 0.00 0.00 0.00 70 1013.8
20260508072507 8 52 0.0 0.0 0.00 0.00 0.00 69 1013.9
20260508072009 8 53 0.0 0.0 0.00 0.00 0.00 68 1013.9
20260508071532 8 53 0.0 1.6 0.00 0.00 0.00 67 1013.9
20260508071005 8 53 0.0 1.6 0.00 0.00 0.00 67 1013.9
20260508070502 9 52 0.0 3.2 0.00 0.00 0.00 67 1014.0
20260508070003 9 26 0.0 3.2 0.00 0.00 0.00 67 1014.1
20260508065504 9 5 0.0 1.6 0.00 0.00 0.00 66 1014.3
20260508065005 9 5 0.0 4.8 0.00 0.00 0.00 66 1014.2
20260508064503 9 11 0.0 4.8 0.00 0.00 0.00 64 1014.2
20260508064003 9 22 0.0 3.2 0.00 0.00 0.00 64 1014.2
20260508063503 9 5 1.6 3.2 0.00 0.00 0.00 64 1014.4
20260508063004 9 5 0.0 3.2 0.00 0.00 0.00 64 1014.4
20260508062504 9 5 0.0 1.6 0.00 0.00 0.00 64 1014.3
20260508062005 9 360 0.0 1.6 0.00 0.00 0.00 65 1014.4
20260508061506 9 5 0.0 1.6 0.00 0.00 0.00 66 1014.4
20260508061004 9 328 0.0 1.6 0.00 0.00 0.00 66 1014.3
20260508060505 9 328 0.0 3.2 0.00 0.00 0.00 65 1014.1
20260508060012 9 328 0.0 3.2 0.00 0.00 0.00 64 1014.0
20260508055505 8 228 0.0 3.2 0.00 0.00 0.00 66 1014.1
20260508055002 8 227 0.0 3.2 0.00 0.00 0.00 65 1014.0
20260508054503 8 217 0.0 3.2 0.00 0.00 0.00 65 1014.0
20260508054001 8 213 0.0 8.0 0.00 0.00 0.00 67 1013.9
20260508053505 8 205 0.0 8.0 0.00 0.00 0.00 67 1013.9
20260508053005 8 223 0.0 4.8 0.00 0.00 0.00 69 1013.9
20260508052502 8 202 0.0 6.4 0.00 0.00 0.00 69 1013.9
20260508052007 8 256 0.0 6.4 0.00 0.00 0.00 67 1013.9
20260508051504 8 205 0.0 6.4 0.00 0.00 0.00 67 1013.9
20260508051003 8 196 0.0 6.4 0.00 0.00 0.00 68 1013.9
20260508050503 8 183 0.0 6.4 0.00 0.00 0.00 70 1013.9
20260508050005 8 216 0.0 3.2 0.00 0.00 0.00 72 1013.9
20260508045503 8 200 0.0 3.2 0.00 0.00 0.00 72 1014.1
20260508045004 8 256 0.0 3.2 0.00 0.00 0.00 72 1014.1
20260508044511 7 256 0.0 1.6 0.00 0.00 0.00 73 1014.1
20260508044006 7 275 0.0 0.0 0.00 0.00 0.00 73 1014.1
20260508043505 7 275 0.0 1.6 0.00 0.00 0.00 74 1014.1
20260508043003 7 275 0.0 1.6 0.00 0.00 0.00 75 1014.2
20260508042503 7 275 0.0 0.0 0.00 0.00 0.00 74 1014.1
20260508042004 7 275 0.0 1.6 0.00 0.00 0.00 75 1014.2
20260508041508 7 275 0.0 1.6 0.00 0.00 0.00 75 1014.1
20260508041003 7 275 0.0 0.0 0.00 0.00 0.00 75 1014.2
20260508040502 7 275 0.0 0.0 0.00 0.00 0.00 75 1014.2
20260508040004 7 275 0.0 0.0 0.00 0.00 0.00 73 1014.1
20260508035503 7 275 0.0 1.6 0.00 0.00 0.00 73 1014.1
20260508035004 7 275 0.0 1.6 0.00 0.00 0.00 74 1014.1
20260508034510 7 275 0.0 0.0 0.00 0.00 0.00 73 1014.1
20260508034006 7 275 0.0 0.0 0.00 0.00 0.00 74 1014.1
20260508033506 7 275 0.0 0.0 0.00 0.00 0.00 73 1014.1
20260508033023 7 275 0.0 0.0 0.00 0.00 0.00 74 1014.2
20260508032506 7 275 0.0 0.0 0.00 0.00 0.00 73 1014.1
20260508032009 7 275 0.0 0.0 0.00 0.00 0.00 72 1014.1
20260508031522 7 275 0.0 0.0 0.00 0.00 0.00 72 1014.1
20260508031003 7 275 0.0 0.0 0.00 0.00 0.00 71 1014.1
20260508030502 7 275 0.0 0.0 0.00 0.00 0.00 71 1014.1
20260508030008 7 275 0.0 0.0 0.00 0.00 0.00 70 1014.2
20260508025504 7 275 0.0 0.0 0.00 0.00 0.00 70 1014.2
20260508025003 7 275 0.0 0.0 0.00 0.00 0.00 70 1014.2
20260508024508 7 275 0.0 0.0 0.00 0.00 0.00 69 1014.2
20260508024003 7 275 0.0 0.0 0.00 0.00 0.00 68 1014.2
20260508023504 7 275 0.0 0.0 0.00 0.00 0.00 67 1014.2
20260508023014 7 275 0.0 0.0 0.00 0.00 0.00 67 1014.2
20260508022510 7 275 0.0 0.0 0.00 0.00 0.00 66 1014.2
20260508022008 8 275 0.0 1.6 0.00 0.00 0.00 66 1014.2
20260508021527 8 275 0.0 1.6 0.00 0.00 0.00 66 1014.1
20260508021009 8 275 0.0 1.6 0.00 0.00 0.00 65 1014.2
20260508020511 8 275 0.0 1.6 0.00 0.00 0.00 65 1014.1
20260508020020 8 275 0.0 0.0 0.00 0.00 0.00 62 1014.2
20260508015507 8 275 0.0 0.0 0.00 0.00 0.00 62 1014.3
20260508015002 8 275 0.0 0.0 0.00 0.00 0.00 61 1014.2
20260508014508 8 275 0.0 0.0 0.00 0.00 0.00 62 1014.3
20260508014004 9 275 0.0 0.0 0.00 0.00 0.00 61 1014.3
20260508013504 9 275 0.0 0.0 0.00 0.00 0.00 59 1014.2
20260508013007 9 275 0.0 0.0 0.00 0.00 0.00 57 1014.3
20260508012505 10 275 0.0 0.0 0.00 0.00 0.00 56 1014.2
20260508012006 10 275 0.0 0.0 0.00 0.00 0.00 55 1014.0
20260508011513 10 275 0.0 0.0 0.00 0.00 0.00 53 1014.0
20260508011006 10 275 0.0 0.0 0.00 0.00 0.00 53 1014.0
20260508010506 10 275 0.0 0.0 0.00 0.00 0.00 51 1013.9
20260508010032 10 275 0.0 1.6 0.00 0.00 0.00 50 1013.9
20260508005508 11 275 0.0 1.6 0.00 0.00 0.00 49 1013.9
20260508005011 11 275 0.0 1.6 0.00 0.00 0.00 48 1013.9
20260508004523 11 288 0.0 0.0 0.00 0.00 0.00 48 1013.8
20260508004008 11 288 0.0 1.6 0.00 0.00 0.00 47 1013.8
20260508003502 11 288 0.0 3.2 0.00 0.00 0.00 47 1013.8
20260508003007 11 288 0.0 3.2 0.00 0.00 0.00 46 1013.8
20260508002504 12 272 0.0 3.2 0.00 0.00 0.00 46 1013.8
20260508002003 12 252 0.0 3.2 0.00 0.00 0.00 45 1013.8
20260508001511 12 215 0.0 1.6 0.00 0.00 0.00 44 1013.7
20260508001006 12 215 0.0 4.8 0.00 0.00 0.00 44 1013.7
20260508000504 12 215 1.6 4.8 0.00 0.00 0.00 43 1013.6
20260508000017 12 189 0.0 4.8 0.00 0.00 0.00 43 1013.6
20260507235511 12 42 0.0 4.8 0.00 0.00 0.00 43 1013.5
20260507235010 12 265 0.0 4.8 0.00 0.00 0.00 43 1013.5
20260507234518 13 229 0.0 3.2 0.00 0.00 0.00 42 1013.5
20260507234007 13 250 0.0 6.4 0.00 0.00 0.00 42 1013.5
20260507233507 13 242 1.6 6.4 0.00 0.00 0.00 41 1013.5
20260507233024 13 280 0.0 3.2 0.00 0.00 0.00 40 1013.4
20260507232508 13 255 0.0 3.2 0.00 0.00 0.00 41 1013.3
20260507232018 13 336 0.0 1.6 0.00 0.00 0.00 41 1013.5
20260507231508 13 26 0.0 4.8 0.00 0.00 0.00 42 1013.4
20260507231004 13 223 0.0 6.4 0.00 0.00 0.00 43 1013.3
20260507230504 13 5 0.0 6.4 0.00 0.00 0.00 43 1013.4
20260507230020 13 333 0.0 4.8 0.00 0.00 0.00 42 1013.4
20260507225508 13 13 0.0 4.8 0.00 0.00 0.00 41 1013.5
20260507225007 13 360 0.0 6.4 0.00 0.00 0.00 41 1013.6
20260507224519 13 272 1.6 6.4 0.00 0.00 0.00 40 1013.6
20260507224007 14 319 0.0 6.4 0.00 0.00 0.00 39 1013.6
20260507223507 14 17 0.0 3.2 0.00 0.00 0.00 40 1013.6
20260507223050 14 352 0.0 3.2 0.00 0.00 0.00 39 1013.7
20260507222509 14 19 0.0 4.8 0.00 0.00 0.00 40 1013.7
20260507222011 14 298 1.6 4.8 0.00 0.00 0.00 39 1013.7
20260507221528 15 311 0.0 8.0 0.00 0.00 0.00 41 1013.7
20260507221003 15 73 0.0 8.0 0.00 0.00 0.00 39 1013.8
20260507220503 15 246 0.0 8.0 0.00 0.00 0.00 38 1013.8
20260507220010 15 232 1.6 11.3 0.00 0.00 0.00 38 1013.8
20260507215509 15 39 1.6 19.3 0.00 0.00 0.00 38 1013.7
20260507215006 15 273 3.2 19.3 0.00 0.00 0.00 39 1013.7
20260507214515 15 307 0.0 8.0 0.00 0.00 0.00 38 1013.5
20260507214005 15 5 0.0 8.0 0.00 0.00 0.00 38 1013.6
20260507213506 15 352 1.6 9.7 0.00 0.00 0.00 36 1013.5
20260507213022 15 332 1.6 9.7 0.00 0.00 0.00 39 1013.4
20260507212509 15 14 0.0 9.7 0.00 0.00 0.00 38 1013.5
20260507212017 15 352 0.0 9.7 0.00 0.00 0.00 39 1013.4
20260507211504 15 215 1.6 6.4 0.00 0.00 0.00 39 1013.4
20260507211004 15 187 1.6 6.4 0.00 0.00 0.00 38 1013.4
20260507210504 15 22 0.0 8.0 0.00 0.00 0.00 38 1013.5
20260507210008 15 26 0.0 17.7 0.00 0.00 0.00 38 1013.5
20260507205503 15 33 1.6 17.7 0.00 0.00 0.00 38 1013.4
20260507205004 15 39 1.6 11.3 0.00 0.00 0.00 38 1013.3
20260507204514 16 232 0.0 14.5 0.00 0.00 0.00 38 1013.3
20260507204006 15 18 1.6 14.5 0.00 0.00 0.00 41 1013.2
20260507203512 15 304 3.2 19.3 0.00 0.00 0.00 39 1013.2
20260507203030 15 108 3.2 19.3 0.00 0.00 0.00 41 1013.1
20260507202509 15 30 4.8 22.5 0.00 0.00 0.00 42 1013.1
20260507202013 15 222 0.0 22.5 0.00 0.00 0.00 40 1013.2
20260507201523 15 344 3.2 14.5 0.00 0.00 0.00 41 1013.3
20260507201015 15 17 1.6 8.0 0.00 0.00 0.00 40 1013.5
20260507200510 15 19 1.6 8.0 0.00 0.00 0.00 43 1013.5
20260507200046 15 351 1.6 11.3 0.00 0.00 0.00 40 1013.4
20260507195503 15 304 1.6 11.3 0.00 0.00 0.00 39 1013.4
20260507195004 16 352 1.6 14.5 0.00 0.00 0.00 38 1013.4
20260507194511 16 298 1.6 14.5 0.00 0.00 0.00 41 1013.4
20260507194007 16 337 3.2 11.3 0.00 0.00 0.00 39 1013.6
20260507193504 16 298 0.0 9.7 0.00 0.00 0.00 40 1013.6
20260507193036 16 65 1.6 19.3 0.00 0.00 0.00 38 1013.6
20260507192506 16 45 3.2 19.3 0.00 0.00 0.00 36 1013.5
20260507192007 15 224 3.2 17.7 0.00 0.00 0.00 40 1013.5
20260507191522 15 193 3.2 17.7 0.00 0.00 0.00 39 1013.6
20260507191003 15 346 1.6 12.9 0.00 0.00 0.00 38 1013.7
20260507190503 15 209 1.6 19.3 0.00 0.00 0.00 39 1013.7
20260507190004 15 168 1.6 19.3 0.00 0.00 0.00 41 1013.8
20260507185503 15 9 1.6 11.3 0.00 0.00 0.00 41 1013.7
20260507185003 16 185 1.6 11.3 0.00 0.00 0.00 40 1013.8
20260507184512 15 174 1.6 12.9 0.00 0.00 0.00 43 1013.8
20260507184004 16 274 3.2 12.9 0.00 0.00 0.00 44 1013.8
20260507183503 16 169 1.6 12.9 0.00 0.00 0.00 42 1013.8
20260507183028 16 313 1.6 19.3 0.00 0.00 0.00 43 1013.8
20260507182505 15 16 3.2 19.3 0.00 0.00 0.00 42 1013.8
20260507182002 15 270 0.0 17.7 0.00 0.00 0.00 44 1013.8
20260507181502 15 352 1.6 17.7 0.00 0.00 0.00 44 1013.8
20260507181004 15 211 3.2 11.3 0.00 0.00 0.00 44 1013.7
20260507180502 15 19 0.0 14.5 0.00 0.00 0.00 46 1013.8
20260507180005 15 319 1.6 14.5 0.00 0.00 0.00 48 1013.8
20260507175503 15 263 1.6 11.3 0.00 0.00 0.00 46 1013.8
20260507175004 15 360 1.6 9.7 0.00 0.00 0.00 45 1013.8
20260507174506 15 63 1.6 9.7 0.00 0.00 0.00 47 1013.9
20260507174002 15 267 1.6 11.3 0.00 0.00 0.00 43 1014.0
20260507173504 15 19 0.0 16.1 0.00 0.00 0.00 46 1014.0
20260507173016 15 331 1.6 16.1 0.00 0.00 0.00 47 1014.1
20260507172504 15 344 0.0 14.5 0.00 0.00 0.00 47 1014.2
20260507172004 14 232 1.6 9.7 0.00 0.00 0.00 48 1014.2
20260507171515 14 360 1.6 11.3 0.00 0.00 0.00 47 1014.3
20260507171005 14 24 1.6 12.9 0.00 0.00 0.00 46 1014.4
20260507170505 14 227 1.6 14.5 0.00 0.00 0.00 45 1014.5
20260507170004 14 28 3.2 17.7 0.00 0.00 0.00 44 1014.5
20260507165503 14 292 6.4 17.7 0.00 0.00 0.00 41 1014.6
20260507165003 14 29 1.6 12.9 0.00 0.00 0.00 44 1014.5
20260507164504 14 241 1.6 8.0 0.00 0.00 0.00 44 1014.6
20260507164003 14 238 1.6 8.0 0.00 0.00 0.00 44 1014.6
20260507163504 14 313 1.6 14.5 0.00 0.00 0.00 44 1014.7
20260507163009 13 34 4.8 14.5 0.00 0.00 0.00 45 1014.6
20260507162505 13 180 4.8 14.5 0.00 0.00 0.00 42 1014.6
20260507162006 13 334 1.6 11.3 0.00 0.00 0.00 44 1014.5
20260507161512 13 290 0.0 9.7 0.00 0.00 0.00 45 1014.6
20260507161007 13 284 3.2 14.5 0.00 0.00 0.00 45 1014.5
20260507160507 13 294 3.2 14.5 0.00 0.00 0.00 44 1014.5
20260507160018 13 280 1.6 9.7 0.00 0.00 0.00 45 1014.5
20260507155506 13 267 0.0 14.5 0.00 0.00 0.00 50 1014.4
20260507155002 12 342 1.6 14.5 0.00 0.00 0.00 46 1014.4